Location: Fort Worth, Tx
(32.7431°N, 97.3695°W)
Time: 11:48:33
(UTC-04:00)

Tiros 1 - Pass Details

Date: 02 March 2024
Orbit: 625 x 657 km, 48.4° (Epoch: 24 April)

Event Time Altitude Azimuth Distance (km) Brightness Sun altitude
Rises 20:52:40 0° 273° (W) 2,962 12.3 -18.6°
Reaches altitude 10° 20:55:33 10° 290° (WNW) 2,058 10.8 -19.2°
Maximum altitude 20:59:03 20° 338° (NNW) 1,504 9.3 -19.9°
Enters shadow 21:02:19 11° 24° (NNE) 1,996 9.5 -20.6°
